Change the Weather History Date:

Wednesday, October 8, 2014

  Actual Average Record
Temperature  
Mean Temperature 65 °F -  
Max Temperature 84 °F 71 °F 87 °F (1965)
Min Temperature 46 °F 35 °F 22 °F (1968)
Growing Degree Days 15 (Base 50)    
Moisture  
Dew Point 25 °F    
Average Humidity 26    
Maximum Humidity 44    
Minimum Humidity 9    
Precipitation  
Precipitation 0.00 in - - ()
Sea Level Pressure  
Sea Level Pressure 29.91 in    
Wind  
Wind Speed 6 mph (South)    
Max Wind Speed 10 mph    
Max Gust Speed -    
Visibility 10 miles    
Events      
Averages and records for this station are not official NWS values.
T = Trace of Precipitation, MM = Missing Value Source: NWS Daily Summary

Daily Weather History Graph

Daily Weather History Graph

Search for Another Location

Airport or City:

Trip Planner

Search our weather history database for the weather conditions in past years. The results will help you decide how hot, cold, wet, or windy it might be!

Date:

Astronomy

Oct. 08, 2014 Rise Set
Actual Time 6:57 AM PDT 6:26 PM PDT
Civil Twilight 6:30 AM PDT 6:53 PM PDT
Nautical Twilight 5:59 AM PDT 7:24 PM PDT
Astronomical Twilight 5:28 AM PDT 7:55 PM PDT
Moon 6:44 PM PDT (10/8) 7:09 AM PDT (10/8)
Length of Visible Light 12h 22m
Length of Day
11h 28m
Full, 100% of the Moon is Illuminated
Oct 8
Full
Oct 15
Last Quarter
Oct 23
New
Oct 30
First Quarter
Nov 6
Full

Hourly Weather History & Observations

Time (PDT) Temp. Dew Point Humidity Pressure Visibility Wind Dir Wind Speed Gust Speed Precip Events Conditions
12:56 AM 53.1 °F 28.9 °F 40% 29.91 in 10.0 mi ESE 5.8 mph - N/A   Clear
1:56 AM 52.0 °F 26.1 °F 37% 29.91 in 10.0 mi SE 8.1 mph - N/A   Clear
2:56 AM 52.0 °F 27.0 °F 38% 29.91 in 10.0 mi South 9.2 mph - N/A   Clear
3:56 AM 51.1 °F 28.0 °F 41% 29.91 in 10.0 mi SSE 9.2 mph - N/A   Clear
4:56 AM 50.0 °F 27.0 °F 41% 29.92 in 10.0 mi SSE 8.1 mph - N/A   Clear
5:56 AM 48.0 °F 27.0 °F 44% 29.93 in 10.0 mi SSE 8.1 mph - N/A   Partly Cloudy
6:56 AM 46.9 °F 26.1 °F 44% 29.94 in 10.0 mi SSE 8.1 mph - N/A   Partly Cloudy
7:56 AM 54.0 °F 27.0 °F 35% 29.94 in 10.0 mi SSE 6.9 mph - N/A   Partly Cloudy
8:56 AM 63.0 °F 27.0 °F 26% 29.95 in 10.0 mi South 3.5 mph - N/A   Partly Cloudy
9:56 AM 69.1 °F 27.0 °F 21% 29.96 in 10.0 mi Calm Calm - N/A   Partly Cloudy
10:56 AM 73.9 °F 28.0 °F 18% 29.95 in 10.0 mi NW 3.5 mph - N/A   Partly Cloudy
11:56 AM 77.0 °F 28.0 °F 17% 29.94 in 10.0 mi WNW 4.6 mph - N/A   Partly Cloudy
12:56 PM 79.0 °F 23.0 °F 13% 29.91 in 10.0 mi West 3.5 mph - N/A   Partly Cloudy
1:56 PM 82.0 °F 24.1 °F 12% 29.89 in 10.0 mi Calm Calm - N/A   Partly Cloudy
2:56 PM 84.9 °F 21.0 °F 10% 29.87 in 10.0 mi Variable 4.6 mph - N/A   Partly Cloudy
3:56 PM 84.0 °F 19.9 °F 9% 29.86 in 10.0 mi NNE 4.6 mph - N/A   Partly Cloudy
4:56 PM 84.0 °F 19.0 °F 9% 29.85 in 10.0 mi North 4.6 mph - N/A   Partly Cloudy
5:56 PM 81.0 °F 19.9 °F 10% 29.84 in 10.0 mi North 3.5 mph - N/A   Partly Cloudy
6:56 PM 70.0 °F 24.1 °F 18% 29.86 in 10.0 mi NNW 8.1 mph - N/A   Partly Cloudy
7:56 PM 64.0 °F 24.1 °F 22% 29.88 in 10.0 mi NNW 9.2 mph - N/A   Partly Cloudy
8:56 PM 61.0 °F 24.1 °F 24% 29.89 in 10.0 mi NW 10.4 mph - N/A   Clear
9:56 PM 57.0 °F 23.0 °F 27% 29.91 in 10.0 mi SE 5.8 mph - N/A   Clear
10:56 PM 61.0 °F 25.0 °F 25% 29.91 in 10.0 mi West 4.6 mph - N/A   Clear
11:56 PM 53.1 °F 24.1 °F 32% 29.91 in 10.0 mi Calm Calm - N/A   Clear